Date_Time,Julian_Date,Latitude,Longitude,Instrument_Depth,U,V,Speed,Direction
(yyyy-mm-dd hh:mn:ss UTC),(JD),(+ deg. North),(+ deg. East),(m),(cm/s),(cm/s),(cm/s),(deg True)
1982-07-20 18:00:00 UTC,2445171.250000,29.6650,-93.4789,0076,0.97,7.94,8.0000,7.0000
1982-07-20 18:30:00 UTC,2445171.270833,29.6650,-93.4789,0076,0.84,7.96,8.0000,6.0000
1982-07-20 19:00:00 UTC,2445171.291667,29.6650,-93.4789,0076,0.97,7.94,8.0000,7.0000
1982-07-20 19:30:00 UTC,2445171.312500,29.6650,-93.4789,0076,0.85,6.95,7.0000,7.0000
1982-07-20 20:00:00 UTC,2445171.333333,29.6650,-93.4789,0076,0.97,6.93,7.0000,8.0000
1982-07-20 20:30:00 UTC,2445171.354167,29.6650,-93.4789,0076,1.11,7.92,8.0000,8.0000
1982-07-20 21:00:00 UTC,2445171.375000,29.6650,-93.4789,0076,1.25,8.91,9.0000,8.0000
1982-07-20 21:30:00 UTC,2445171.395833,29.6650,-93.4789,0076,1.56,9.88,10.0000,9.0000
1982-07-20 22:00:00 UTC,2445171.416667,29.6650,-93.4789,0076,2.21,7.69,8.0000,16.0000
1982-07-20 22:30:00 UTC,2445171.437500,29.6650,-93.4789,0076,2.57,-3.06,4.0000,140.0000
1982-07-20 23:00:00 UTC,2445171.458333,29.6650,-93.4789,0076,3.14,-12.61,13.0000,166.0000
1982-07-20 23:30:00 UTC,2445171.479167,29.6650,-93.4789,0076,2.60,-14.77,15.0000,170.0000
1982-07-21 00:00:00 UTC,2445171.500000,29.6650,-93.4789,0076,1.12,-15.96,16.0000,176.0000
1982-07-21 00:30:00 UTC,2445171.520833,29.6650,-93.4789,0076,-1.19,-16.96,17.0000,184.0000
1982-07-21 01:00:00 UTC,2445171.541667,29.6650,-93.4789,0076,-2.66,-16.79,17.0000,189.0000
1982-07-21 01:30:00 UTC,2445171.562500,29.6650,-93.4789,0076,-3.82,-16.56,17.0000,193.0000
1982-07-21 02:00:00 UTC,2445171.583333,29.6650,-93.4789,0076,-3.05,-15.71,16.0000,191.0000
1982-07-21 02:30:00 UTC,2445171.604167,29.6650,-93.4789,0076,-2.09,-14.85,15.0000,188.0000
1982-07-21 03:00:00 UTC,2445171.625000,29.6650,-93.4789,0076,-2.03,-12.84,13.0000,189.0000
1982-07-21 03:30:00 UTC,2445171.645833,29.6650,-93.4789,0076,-3.23,-8.40,9.0000,201.0000
1982-07-21 04:00:00 UTC,2445171.666667,29.6650,-93.4789,0076,-3.50,-1.94,4.0000,241.0000
1982-07-21 04:30:00 UTC,2445171.687500,29.6650,-93.4789,0076,-1.34,6.87,7.0000,349.0000
1982-07-21 05:00:00 UTC,2445171.708333,29.6650,-93.4789,0076,1.81,12.87,13.0000,8.0000
1982-07-21 05:30:00 UTC,2445171.729167,29.6650,-93.4789,0076,3.15,13.64,14.0000,13.0000
1982-07-21 06:00:00 UTC,2445171.750000,29.6650,-93.4789,0076,3.88,14.49,15.0000,15.0000
1982-07-21 06:30:00 UTC,2445171.770833,29.6650,-93.4789,0076,4.11,16.50,17.0000,14.0000
1982-07-21 07:00:00 UTC,2445171.791667,29.6650,-93.4789,0076,3.82,16.56,17.0000,13.0000
1982-07-21 07:30:00 UTC,2445171.812500,29.6650,-93.4789,0076,3.05,15.71,16.0000,11.0000
1982-07-21 08:00:00 UTC,2445171.833333,29.6650,-93.4789,0076,2.19,13.83,14.0000,9.0000
1982-07-21 08:30:00 UTC,2445171.854167,29.6650,-93.4789,0076,1.58,12.90,13.0000,7.0000
1982-07-21 09:00:00 UTC,2445171.875000,29.6650,-93.4789,0076,0.87,9.96,10.0000,5.0000
1982-07-21 09:30:00 UTC,2445171.895833,29.6650,-93.4789,0076,1.39,7.88,8.0000,10.0000
1982-07-21 10:00:00 UTC,2445171.916667,29.6650,-93.4789,0076,2.74,6.44,7.0000,23.0000
1982-07-21 10:30:00 UTC,2445171.937500,29.6650,-93.4789,0076,3.69,4.73,6.0000,38.0000
1982-07-21 11:00:00 UTC,2445171.958333,29.6650,-93.4789,0076,4.60,1.95,5.0000,67.0000
1982-07-21 11:30:00 UTC,2445171.979167,29.6650,-93.4789,0076,6.89,-1.22,7.0000,100.0000
1982-07-21 12:00:00 UTC,2445172.000000,29.6650,-93.4789,0076,7.95,-4.23,9.0000,118.0000
1982-07-21 12:30:00 UTC,2445172.020833,29.6650,-93.4789,0076,7.91,-7.64,11.0000,134.0000
1982-07-21 13:00:00 UTC,2445172.041667,29.6650,-93.4789,0076,6.88,-9.83,12.0000,145.0000
1982-07-21 13:30:00 UTC,2445172.062500,29.6650,-93.4789,0076,6.54,-10.06,12.0000,147.0000
1982-07-21 14:00:00 UTC,2445172.083333,29.6650,-93.4789,0076,7.05,-9.71,12.0000,144.0000
1982-07-21 14:30:00 UTC,2445172.104167,29.6650,-93.4789,0076,6.71,-9.95,12.0000,146.0000
1982-07-21 15:00:00 UTC,2445172.125000,29.6650,-93.4789,0076,5.63,-10.60,12.0000,152.0000
1982-07-21 15:30:00 UTC,2445172.145833,29.6650,-93.4789,0076,3.76,-10.34,11.0000,160.0000
1982-07-21 16:00:00 UTC,2445172.166667,29.6650,-93.4789,0076,1.72,-10.86,11.0000,171.0000
1982-07-21 16:30:00 UTC,2445172.187500,29.6650,-93.4789,0076,-0.63,-11.98,12.0000,183.0000
1982-07-21 17:00:00 UTC,2445172.208333,29.6650,-93.4789,0076,-2.90,-11.64,12.0000,194.0000
1982-07-21 17:30:00 UTC,2445172.229167,29.6650,-93.4789,0076,-4.50,-11.13,12.0000,202.0000
1982-07-21 18:00:00 UTC,2445172.250000,29.6650,-93.4789,0076,-5.67,-9.43,11.0000,211.0000
1982-07-21 18:30:00 UTC,2445172.270833,29.6650,-93.4789,0076,-7.22,-8.30,11.0000,221.0000
1982-07-21 19:00:00 UTC,2445172.291667,29.6650,-93.4789,0076,-9.46,-7.39,12.0000,232.0000
1982-07-21 19:30:00 UTC,2445172.312500,29.6650,-93.4789,0076,-10.90,-7.08,13.0000,237.0000
1982-07-21 20:00:00 UTC,2445172.333333,29.6650,-93.4789,0076,-11.61,-7.83,14.0000,236.0000
1982-07-21 20:30:00 UTC,2445172.354167,29.6650,-93.4789,0076,-12.14,-8.82,15.0000,234.0000
1982-07-21 21:00:00 UTC,2445172.375000,29.6650,-93.4789,0076,-11.98,-9.03,15.0000,233.0000
1982-07-21 21:30:00 UTC,2445172.395833,29.6650,-93.4789,0076,-10.88,-8.81,14.0000,231.0000
1982-07-21 22:00:00 UTC,2445172.416667,29.6650,-93.4789,0076,-8.87,-9.51,13.0000,223.0000
1982-07-21 22:30:00 UTC,2445172.437500,29.6650,-93.4789,0076,-6.00,-10.39,12.0000,210.0000
1982-07-21 23:00:00 UTC,2445172.458333,29.6650,-93.4789,0076,-3.58,-10.40,11.0000,199.0000
1982-07-21 23:30:00 UTC,2445172.479167,29.6650,-93.4789,0076,-2.25,-9.74,10.0000,193.0000
1982-07-22 00:00:00 UTC,2445172.500000,29.6650,-93.4789,0076,-1.56,-8.86,9.0000,190.0000
1982-07-22 00:30:00 UTC,2445172.520833,29.6650,-93.4789,0076,-2.21,-7.69,8.0000,196.0000
1982-07-22 01:00:00 UTC,2445172.541667,29.6650,-93.4789,0076,-3.91,-5.80,7.0000,214.0000
1982-07-22 01:30:00 UTC,2445172.562500,29.6650,-93.4789,0076,-4.97,-3.36,6.0000,236.0000
1982-07-22 02:00:00 UTC,2445172.583333,29.6650,-93.4789,0076,-5.82,-1.45,6.0000,256.0000
1982-07-22 02:30:00 UTC,2445172.604167,29.6650,-93.4789,0076,-5.97,0.63,6.0000,276.0000
1982-07-22 03:00:00 UTC,2445172.625000,29.6650,-93.4789,0076,-5.39,2.63,6.0000,296.0000
1982-07-22 03:30:00 UTC,2445172.645833,29.6650,-93.4789,0076,-5.73,4.02,7.0000,305.0000
1982-07-22 04:00:00 UTC,2445172.666667,29.6650,-93.4789,0076,-5.95,5.35,8.0000,312.0000
1982-07-22 04:30:00 UTC,2445172.687500,29.6650,-93.4789,0076,-5.66,6.99,9.0000,321.0000
1982-07-22 05:00:00 UTC,2445172.708333,29.6650,-93.4789,0076,-5.00,8.66,10.0000,330.0000
1982-07-22 05:30:00 UTC,2445172.729167,29.6650,-93.4789,0076,-3.58,10.40,11.0000,341.0000
1982-07-22 06:00:00 UTC,2445172.750000,29.6650,-93.4789,0076,-0.70,9.98,10.0000,356.0000
1982-07-22 06:30:00 UTC,2445172.770833,29.6650,-93.4789,0076,0.28,8.00,8.0000,2.0000
1982-07-22 07:00:00 UTC,2445172.791667,29.6650,-93.4789,0076,-0.73,6.96,7.0000,354.0000
1982-07-22 07:30:00 UTC,2445172.812500,29.6650,-93.4789,0076,-2.87,7.47,8.0000,339.0000
1982-07-22 08:00:00 UTC,2445172.833333,29.6650,-93.4789,0076,-4.47,6.63,8.0000,326.0000
1982-07-22 08:30:00 UTC,2445172.854167,29.6650,-93.4789,0076,-5.56,5.75,8.0000,316.0000
1982-07-22 09:00:00 UTC,2445172.875000,29.6650,-93.4789,0076,-6.30,4.93,8.0000,308.0000
1982-07-22 09:30:00 UTC,2445172.895833,29.6650,-93.4789,0076,-7.00,3.88,8.0000,299.0000
1982-07-22 10:00:00 UTC,2445172.916667,29.6650,-93.4789,0076,-7.56,2.60,8.0000,289.0000
1982-07-22 10:30:00 UTC,2445172.937500,29.6650,-93.4789,0076,-8.00,-0.00,8.0000,270.0000
1982-07-22 11:00:00 UTC,2445172.958333,29.6650,-93.4789,0076,-8.28,-3.52,9.0000,247.0000
1982-07-22 11:30:00 UTC,2445172.979167,29.6650,-93.4789,0076,-8.67,-6.77,11.0000,232.0000
1982-07-22 12:00:00 UTC,2445173.000000,29.6650,-93.4789,0076,-7.71,-9.19,12.0000,220.0000
1982-07-22 12:30:00 UTC,2445173.020833,29.6650,-93.4789,0076,-6.00,-10.39,12.0000,210.0000
1982-07-22 13:00:00 UTC,2445173.041667,29.6650,-93.4789,0076,-4.88,-10.96,12.0000,204.0000
1982-07-22 13:30:00 UTC,2445173.062500,29.6650,-93.4789,0076,-4.56,-13.24,14.0000,199.0000
1982-07-22 14:00:00 UTC,2445173.083333,29.6650,-93.4789,0076,-3.53,-16.63,17.0000,192.0000
1982-07-22 14:30:00 UTC,2445173.104167,29.6650,-93.4789,0076,-2.82,-17.78,18.0000,189.0000
1982-07-22 15:00:00 UTC,2445173.125000,29.6650,-93.4789,0076,-3.74,-17.61,18.0000,192.0000
1982-07-22 15:30:00 UTC,2445173.145833,29.6650,-93.4789,0076,-5.86,-17.02,18.0000,199.0000
1982-07-22 16:00:00 UTC,2445173.166667,29.6650,-93.4789,0076,-7.89,-16.18,18.0000,206.0000
1982-07-22 16:30:00 UTC,2445173.187500,29.6650,-93.4789,0076,-7.98,-15.01,17.0000,208.0000
1982-07-22 17:00:00 UTC,2445173.208333,29.6650,-93.4789,0076,-7.50,-12.99,15.0000,210.0000
1982-07-22 17:30:00 UTC,2445173.229167,29.6650,-93.4789,0076,-7.39,-9.46,12.0000,218.0000
1982-07-22 18:00:00 UTC,2445173.250000,29.6650,-93.4789,0076,-7.88,-6.16,10.0000,232.0000
1982-07-22 18:30:00 UTC,2445173.270833,29.6650,-93.4789,0076,-8.56,-2.78,9.0000,252.0000
1982-07-22 19:00:00 UTC,2445173.291667,29.6650,-93.4789,0076,-8.97,0.78,9.0000,275.0000
1982-07-22 19:30:00 UTC,2445173.312500,29.6650,-93.4789,0076,-9.46,3.26,10.0000,289.0000
1982-07-22 20:00:00 UTC,2445173.333333,29.6650,-93.4789,0076,-8.99,4.38,10.0000,296.0000
1982-07-22 20:30:00 UTC,2445173.354167,29.6650,-93.4789,0076,-7.19,5.42,9.0000,307.0000
1982-07-22 21:00:00 UTC,2445173.375000,29.6650,-93.4789,0076,-5.46,5.85,8.0000,317.0000
1982-07-22 21:30:00 UTC,2445173.395833,29.6650,-93.4789,0076,-5.14,6.13,8.0000,320.0000
1982-07-22 22:00:00 UTC,2445173.416667,29.6650,-93.4789,0076,-4.95,4.95,7.0000,315.0000
1982-07-22 22:30:00 UTC,2445173.437500,29.6650,-93.4789,0076,-5.44,4.41,7.0000,309.0000
1982-07-22 23:00:00 UTC,2445173.458333,29.6650,-93.4789,0076,-4.39,4.09,6.0000,313.0000
1982-07-22 23:30:00 UTC,2445173.479167,29.6650,-93.4789,0076,-3.28,3.77,5.0000,319.0000
1982-07-23 00:00:00 UTC,2445173.500000,29.6650,-93.4789,0076,-1.29,1.53,2.0000,320.0000
1982-07-23 00:30:00 UTC,2445173.520833,29.6650,-93.4789,0076,-0.72,0.69,1.0000,314.0000
1982-07-23 01:00:00 UTC,2445173.541667,29.6650,-93.4789,0076,0.00,0.00,0.0000,47.0000
1982-07-23 01:30:00 UTC,2445173.562500,29.6650,-93.4789,0076,0.97,0.22,1.0000,77.0000
1982-07-23 02:00:00 UTC,2445173.583333,29.6650,-93.4789,0076,2.00,0.14,2.0000,86.0000
1982-07-23 02:30:00 UTC,2445173.604167,29.6650,-93.4789,0076,2.98,-0.31,3.0000,96.0000
1982-07-23 03:00:00 UTC,2445173.625000,29.6650,-93.4789,0076,2.99,-0.26,3.0000,95.0000
1982-07-23 03:30:00 UTC,2445173.645833,29.6650,-93.4789,0076,1.96,0.42,2.0000,78.0000
1982-07-23 04:00:00 UTC,2445173.666667,29.6650,-93.4789,0076,0.81,0.59,1.0000,54.0000
1982-07-23 04:30:00 UTC,2445173.687500,29.6650,-93.4789,0076,-0.00,0.00,0.0000,353.0000
1982-07-23 05:00:00 UTC,2445173.708333,29.6650,-93.4789,0076,-0.24,0.97,1.0000,346.0000
1982-07-23 05:30:00 UTC,2445173.729167,29.6650,-93.4789,0076,-0.00,0.00,0.0000,343.0000
1982-07-23 06:00:00 UTC,2445173.750000,29.6650,-93.4789,0076,-0.99,0.16,1.0000,279.0000
1982-07-23 06:30:00 UTC,2445173.770833,29.6650,-93.4789,0076,-2.00,-0.10,2.0000,267.0000
1982-07-23 07:00:00 UTC,2445173.791667,29.6650,-93.4789,0076,-2.95,-0.52,3.0000,260.0000
1982-07-23 07:30:00 UTC,2445173.812500,29.6650,-93.4789,0076,-2.93,-0.62,3.0000,258.0000
1982-07-23 08:00:00 UTC,2445173.833333,29.6650,-93.4789,0076,-2.99,-0.21,3.0000,266.0000
1982-07-23 08:30:00 UTC,2445173.854167,29.6650,-93.4789,0076,-5.98,-0.52,6.0000,265.0000
1982-07-23 09:00:00 UTC,2445173.875000,29.6650,-93.4789,0076,-9.70,-2.42,10.0000,256.0000
1982-07-23 09:30:00 UTC,2445173.895833,29.6650,-93.4789,0076,-14.18,-4.88,15.0000,251.0000
1982-07-23 10:00:00 UTC,2445173.916667,29.6650,-93.4789,0076,-16.17,-5.25,17.0000,252.0000
1982-07-23 10:30:00 UTC,2445173.937500,29.6650,-93.4789,0076,-16.26,-4.97,17.0000,253.0000
1982-07-23 11:00:00 UTC,2445173.958333,29.6650,-93.4789,0076,-15.38,-4.41,16.0000,254.0000
1982-07-23 11:30:00 UTC,2445173.979167,29.6650,-93.4789,0076,-14.62,-3.37,15.0000,257.0000
1982-07-23 12:00:00 UTC,2445174.000000,29.6650,-93.4789,0076,-12.93,-1.36,13.0000,264.0000
1982-07-23 12:30:00 UTC,2445174.020833,29.6650,-93.4789,0076,-11.00,-0.19,11.0000,269.0000
1982-07-23 13:00:00 UTC,2445174.041667,29.6650,-93.4789,0076,-10.00,-0.00,10.0000,270.0000
1982-07-23 13:30:00 UTC,2445174.062500,29.6650,-93.4789,0076,-10.00,0.17,10.0000,271.0000
1982-07-23 14:00:00 UTC,2445174.083333,29.6650,-93.4789,0076,-8.80,1.87,9.0000,282.0000
1982-07-23 14:30:00 UTC,2445174.104167,29.6650,-93.4789,0076,-7.87,4.36,9.0000,299.0000
1982-07-23 15:00:00 UTC,2445174.125000,29.6650,-93.4789,0076,-5.66,5.66,8.0000,315.0000
1982-07-23 15:30:00 UTC,2445174.145833,29.6650,-93.4789,0076,-3.50,6.06,7.0000,330.0000
1982-07-23 16:00:00 UTC,2445174.166667,29.6650,-93.4789,0076,-1.38,4.81,5.0000,344.0000
1982-07-23 16:30:00 UTC,2445174.187500,29.6650,-93.4789,0076,0.69,3.94,4.0000,10.0000
1982-07-23 17:00:00 UTC,2445174.208333,29.6650,-93.4789,0076,2.72,4.19,5.0000,33.0000
1982-07-23 17:30:00 UTC,2445174.229167,29.6650,-93.4789,0076,4.77,5.12,7.0000,43.0000
1982-07-23 18:00:00 UTC,2445174.250000,29.6650,-93.4789,0076,7.09,5.54,9.0000,52.0000
1982-07-23 18:30:00 UTC,2445174.270833,29.6650,-93.4789,0076,8.48,5.30,10.0000,58.0000
1982-07-23 19:00:00 UTC,2445174.291667,29.6650,-93.4789,0076,9.33,5.83,11.0000,58.0000
1982-07-23 19:30:00 UTC,2445174.312500,29.6650,-93.4789,0076,8.19,5.74,10.0000,55.0000
1982-07-23 20:00:00 UTC,2445174.333333,29.6650,-93.4789,0076,7.55,6.56,10.0000,49.0000
1982-07-23 20:30:00 UTC,2445174.354167,29.6650,-93.4789,0076,6.02,6.69,9.0000,42.0000
1982-07-23 21:00:00 UTC,2445174.375000,29.6650,-93.4789,0076,4.12,6.86,8.0000,31.0000
1982-07-23 21:30:00 UTC,2445174.395833,29.6650,-93.4789,0076,1.35,5.85,6.0000,13.0000
1982-07-23 22:00:00 UTC,2445174.416667,29.6650,-93.4789,0076,-0.31,5.99,6.0000,357.0000
1982-07-23 22:30:00 UTC,2445174.437500,29.6650,-93.4789,0076,-0.37,6.99,7.0000,357.0000
1982-07-23 23:00:00 UTC,2445174.458333,29.6650,-93.4789,0076,1.35,5.85,6.0000,13.0000
1982-07-23 23:30:00 UTC,2445174.479167,29.6650,-93.4789,0076,3.94,4.53,6.0000,41.0000
1982-07-24 00:00:00 UTC,2445174.500000,29.6650,-93.4789,0076,6.39,2.85,7.0000,66.0000
1982-07-24 00:30:00 UTC,2445174.520833,29.6650,-93.4789,0076,7.83,1.66,8.0000,78.0000
1982-07-24 01:00:00 UTC,2445174.541667,29.6650,-93.4789,0076,7.97,0.70,8.0000,85.0000
1982-07-24 01:30:00 UTC,2445174.562500,29.6650,-93.4789,0076,8.00,-0.14,8.0000,91.0000
1982-07-24 02:00:00 UTC,2445174.583333,29.6650,-93.4789,0076,8.97,-0.78,9.0000,95.0000
1982-07-24 02:30:00 UTC,2445174.604167,29.6650,-93.4789,0076,9.88,-1.56,10.0000,99.0000
1982-07-24 03:00:00 UTC,2445174.625000,29.6650,-93.4789,0076,10.80,-2.10,11.0000,101.0000
1982-07-24 03:30:00 UTC,2445174.645833,29.6650,-93.4789,0076,11.48,-3.51,12.0000,107.0000
1982-07-24 04:00:00 UTC,2445174.666667,29.6650,-93.4789,0076,12.14,-4.66,13.0000,111.0000
1982-07-24 04:30:00 UTC,2445174.687500,29.6650,-93.4789,0076,11.28,-4.10,12.0000,110.0000
1982-07-24 05:00:00 UTC,2445174.708333,29.6650,-93.4789,0076,9.61,-2.76,10.0000,106.0000
1982-07-24 05:30:00 UTC,2445174.729167,29.6650,-93.4789,0076,8.86,-1.56,9.0000,100.0000
1982-07-24 06:00:00 UTC,2445174.750000,29.6650,-93.4789,0076,7.99,-0.42,8.0000,93.0000
1982-07-24 06:30:00 UTC,2445174.770833,29.6650,-93.4789,0076,7.97,-0.70,8.0000,95.0000
1982-07-24 07:00:00 UTC,2445174.791667,29.6650,-93.4789,0076,6.89,-1.22,7.0000,100.0000
1982-07-24 07:30:00 UTC,2445174.812500,29.6650,-93.4789,0076,4.85,-1.21,5.0000,104.0000
1982-07-24 08:00:00 UTC,2445174.833333,29.6650,-93.4789,0076,2.36,-1.85,3.0000,128.0000
1982-07-24 08:30:00 UTC,2445174.854167,29.6650,-93.4789,0076,0.03,-2.00,2.0000,179.0000
1982-07-24 09:00:00 UTC,2445174.875000,29.6650,-93.4789,0076,-2.08,-2.16,3.0000,224.0000
1982-07-24 09:30:00 UTC,2445174.895833,29.6650,-93.4789,0076,-3.63,-1.69,4.0000,245.0000
1982-07-24 10:00:00 UTC,2445174.916667,29.6650,-93.4789,0076,-3.97,-0.49,4.0000,263.0000
1982-07-24 10:30:00 UTC,2445174.937500,29.6650,-93.4789,0076,-5.97,0.63,6.0000,276.0000
1982-07-24 11:00:00 UTC,2445174.958333,29.6650,-93.4789,0076,-6.62,2.28,7.0000,289.0000
1982-07-24 11:30:00 UTC,2445174.979167,29.6650,-93.4789,0076,-6.30,4.93,8.0000,308.0000
1982-07-24 12:00:00 UTC,2445175.000000,29.6650,-93.4789,0076,-5.79,6.89,9.0000,320.0000
1982-07-24 12:30:00 UTC,2445175.020833,29.6650,-93.4789,0076,-4.77,7.63,9.0000,328.0000
1982-07-24 13:00:00 UTC,2445175.041667,29.6650,-93.4789,0076,-3.76,7.06,8.0000,332.0000
1982-07-24 13:30:00 UTC,2445175.062500,29.6650,-93.4789,0076,-1.93,6.73,7.0000,344.0000
1982-07-24 14:00:00 UTC,2445175.083333,29.6650,-93.4789,0076,0.84,7.96,8.0000,6.0000
1982-07-24 14:30:00 UTC,2445175.104167,29.6650,-93.4789,0076,3.23,8.40,9.0000,21.0000
1982-07-24 15:00:00 UTC,2445175.125000,29.6650,-93.4789,0076,4.50,7.79,9.0000,30.0000
1982-07-24 15:30:00 UTC,2445175.145833,29.6650,-93.4789,0076,5.99,9.23,11.0000,33.0000
1982-07-24 16:00:00 UTC,2445175.166667,29.6650,-93.4789,0076,7.82,10.38,13.0000,37.0000
1982-07-24 16:30:00 UTC,2445175.187500,29.6650,-93.4789,0076,10.61,10.61,15.0000,45.0000
1982-07-24 17:00:00 UTC,2445175.208333,29.6650,-93.4789,0076,13.58,10.23,17.0000,53.0000
1982-07-24 17:30:00 UTC,2445175.229167,29.6650,-93.4789,0076,14.42,9.01,17.0000,58.0000
1982-07-24 18:00:00 UTC,2445175.250000,29.6650,-93.4789,0076,14.09,9.51,17.0000,56.0000
1982-07-24 18:30:00 UTC,2445175.270833,29.6650,-93.4789,0076,13.21,10.70,17.0000,51.0000
1982-07-24 19:00:00 UTC,2445175.291667,29.6650,-93.4789,0076,12.08,10.50,16.0000,49.0000
1982-07-24 19:30:00 UTC,2445175.312500,29.6650,-93.4789,0076,11.49,9.64,15.0000,50.0000
1982-07-24 20:00:00 UTC,2445175.333333,29.6650,-93.4789,0076,11.82,9.23,15.0000,52.0000
1982-07-24 20:30:00 UTC,2445175.354167,29.6650,-93.4789,0076,11.47,8.03,14.0000,55.0000
1982-07-24 21:00:00 UTC,2445175.375000,29.6650,-93.4789,0076,10.29,6.18,12.0000,59.0000
1982-07-24 21:30:00 UTC,2445175.395833,29.6650,-93.4789,0076,8.66,5.00,10.0000,60.0000
1982-07-24 22:00:00 UTC,2445175.416667,29.6650,-93.4789,0076,6.12,3.39,7.0000,61.0000
1982-07-24 22:30:00 UTC,2445175.437500,29.6650,-93.4789,0076,4.83,1.29,5.0000,75.0000
1982-07-24 23:00:00 UTC,2445175.458333,29.6650,-93.4789,0076,3.90,-0.90,4.0000,103.0000
1982-07-24 23:30:00 UTC,2445175.479167,29.6650,-93.4789,0076,3.28,-2.29,4.0000,125.0000
1982-07-25 00:00:00 UTC,2445175.500000,29.6650,-93.4789,0076,2.46,-3.15,4.0000,142.0000
1982-07-25 00:30:00 UTC,2445175.520833,29.6650,-93.4789,0076,1.82,-3.56,4.0000,153.0000
1982-07-25 01:00:00 UTC,2445175.541667,29.6650,-93.4789,0076,1.50,-3.71,4.0000,158.0000
1982-07-25 01:30:00 UTC,2445175.562500,29.6650,-93.4789,0076,1.56,-3.68,4.0000,157.0000
1982-07-25 02:00:00 UTC,2445175.583333,29.6650,-93.4789,0076,2.35,-4.41,5.0000,152.0000
1982-07-25 02:30:00 UTC,2445175.604167,29.6650,-93.4789,0076,3.18,-5.09,6.0000,148.0000
1982-07-25 03:00:00 UTC,2445175.625000,29.6650,-93.4789,0076,3.00,-5.20,6.0000,150.0000
1982-07-25 03:30:00 UTC,2445175.645833,29.6650,-93.4789,0076,2.54,-5.44,6.0000,155.0000
1982-07-25 04:00:00 UTC,2445175.666667,29.6650,-93.4789,0076,1.75,-3.60,4.0000,154.0000
1982-07-25 04:30:00 UTC,2445175.687500,29.6650,-93.4789,0076,1.93,-2.30,3.0000,140.0000
1982-07-25 05:00:00 UTC,2445175.708333,29.6650,-93.4789,0076,2.43,-1.76,3.0000,126.0000
1982-07-25 05:30:00 UTC,2445175.729167,29.6650,-93.4789,0076,0.99,0.14,1.0000,82.0000
1982-07-25 06:00:00 UTC,2445175.750000,29.6650,-93.4789,0076,-0.42,2.97,3.0000,352.0000
1982-07-25 06:30:00 UTC,2445175.770833,29.6650,-93.4789,0076,-0.85,6.95,7.0000,353.0000
1982-07-25 07:00:00 UTC,2445175.791667,29.6650,-93.4789,0076,-0.78,8.97,9.0000,355.0000
1982-07-25 07:30:00 UTC,2445175.812500,29.6650,-93.4789,0076,-0.63,8.98,9.0000,356.0000
1982-07-25 08:00:00 UTC,2445175.833333,29.6650,-93.4789,0076,-0.47,8.99,9.0000,357.0000
1982-07-25 08:30:00 UTC,2445175.854167,29.6650,-93.4789,0076,0.70,9.98,10.0000,4.0000
1982-07-25 09:00:00 UTC,2445175.875000,29.6650,-93.4789,0076,1.91,9.82,10.0000,11.0000
1982-07-25 09:30:00 UTC,2445175.895833,29.6650,-93.4789,0076,2.42,9.70,10.0000,14.0000
1982-07-25 10:00:00 UTC,2445175.916667,29.6650,-93.4789,0076,2.02,8.77,9.0000,13.0000
1982-07-25 10:30:00 UTC,2445175.937500,29.6650,-93.4789,0076,0.97,7.94,8.0000,7.0000
1982-07-25 11:00:00 UTC,2445175.958333,29.6650,-93.4789,0076,0.56,7.98,8.0000,4.0000
1982-07-25 11:30:00 UTC,2445175.979167,29.6650,-93.4789,0076,0.78,8.97,9.0000,5.0000
1982-07-25 12:00:00 UTC,2445176.000000,29.6650,-93.4789,0076,1.56,8.86,9.0000,10.0000
1982-07-25 12:30:00 UTC,2445176.020833,29.6650,-93.4789,0076,1.94,7.76,8.0000,14.0000
1982-07-25 13:00:00 UTC,2445176.041667,29.6650,-93.4789,0076,2.39,6.58,7.0000,20.0000
1982-07-25 13:30:00 UTC,2445176.062500,29.6650,-93.4789,0076,2.96,6.34,7.0000,25.0000
1982-07-25 14:00:00 UTC,2445176.083333,29.6650,-93.4789,0076,3.71,5.94,7.0000,32.0000
1982-07-25 14:30:00 UTC,2445176.104167,29.6650,-93.4789,0076,4.02,5.73,7.0000,35.0000
1982-07-25 15:00:00 UTC,2445176.125000,29.6650,-93.4789,0076,3.07,6.29,7.0000,26.0000
1982-07-25 15:30:00 UTC,2445176.145833,29.6650,-93.4789,0076,3.52,8.28,9.0000,23.0000
1982-07-25 16:00:00 UTC,2445176.166667,29.6650,-93.4789,0076,5.88,8.09,10.0000,36.0000
1982-07-25 16:30:00 UTC,2445176.187500,29.6650,-93.4789,0076,7.43,6.69,10.0000,48.0000
1982-07-25 17:00:00 UTC,2445176.208333,29.6650,-93.4789,0076,7.99,6.02,10.0000,53.0000
1982-07-25 17:30:00 UTC,2445176.229167,29.6650,-93.4789,0076,9.23,5.99,11.0000,57.0000
1982-07-25 18:00:00 UTC,2445176.250000,29.6650,-93.4789,0076,11.02,6.89,13.0000,58.0000
1982-07-25 18:30:00 UTC,2445176.270833,29.6650,-93.4789,0076,12.00,7.21,14.0000,59.0000
1982-07-25 19:00:00 UTC,2445176.291667,29.6650,-93.4789,0076,11.26,6.50,13.0000,60.0000
1982-07-25 19:30:00 UTC,2445176.312500,29.6650,-93.4789,0076,10.06,6.54,12.0000,57.0000
1982-07-25 20:00:00 UTC,2445176.333333,29.6650,-93.4789,0076,7.88,6.16,10.0000,52.0000
1982-07-25 20:30:00 UTC,2445176.354167,29.6650,-93.4789,0076,7.43,6.69,10.0000,48.0000
1982-07-25 21:00:00 UTC,2445176.375000,29.6650,-93.4789,0076,6.95,7.19,10.0000,44.0000
1982-07-25 21:30:00 UTC,2445176.395833,29.6650,-93.4789,0076,6.56,7.55,10.0000,41.0000
1982-07-25 22:00:00 UTC,2445176.416667,29.6650,-93.4789,0076,7.31,6.82,10.0000,47.0000
1982-07-25 22:30:00 UTC,2445176.437500,29.6650,-93.4789,0076,8.39,5.45,10.0000,57.0000
1982-07-25 23:00:00 UTC,2445176.458333,29.6650,-93.4789,0076,7.55,4.90,9.0000,57.0000
1982-07-25 23:30:00 UTC,2445176.479167,29.6650,-93.4789,0076,5.12,4.77,7.0000,47.0000
1982-07-26 00:00:00 UTC,2445176.500000,29.6650,-93.4789,0076,3.61,4.79,6.0000,37.0000
1982-07-26 00:30:00 UTC,2445176.520833,29.6650,-93.4789,0076,3.44,4.91,6.0000,35.0000
1982-07-26 01:00:00 UTC,2445176.541667,29.6650,-93.4789,0076,5.46,5.85,8.0000,43.0000
1982-07-26 01:30:00 UTC,2445176.562500,29.6650,-93.4789,0076,7.46,5.03,9.0000,56.0000
1982-07-26 02:00:00 UTC,2445176.583333,29.6650,-93.4789,0076,7.56,2.60,8.0000,71.0000
1982-07-26 02:30:00 UTC,2445176.604167,29.6650,-93.4789,0076,5.94,0.84,6.0000,82.0000
1982-07-26 03:00:00 UTC,2445176.625000,29.6650,-93.4789,0076,5.00,0.17,5.0000,88.0000
1982-07-26 03:30:00 UTC,2445176.645833,29.6650,-93.4789,0076,5.99,-0.42,6.0000,94.0000
1982-07-26 04:00:00 UTC,2445176.666667,29.6650,-93.4789,0076,7.83,-1.66,8.0000,102.0000
1982-07-26 04:30:00 UTC,2445176.687500,29.6650,-93.4789,0076,8.40,-3.23,9.0000,111.0000
1982-07-26 05:00:00 UTC,2445176.708333,29.6650,-93.4789,0076,8.66,-5.00,10.0000,120.0000
1982-07-26 05:30:00 UTC,2445176.729167,29.6650,-93.4789,0076,7.77,-6.29,10.0000,129.0000
1982-07-26 06:00:00 UTC,2445176.750000,29.6650,-93.4789,0076,5.66,-6.99,9.0000,141.0000
1982-07-26 06:30:00 UTC,2445176.770833,29.6650,-93.4789,0076,2.85,-6.39,7.0000,156.0000
1982-07-26 07:00:00 UTC,2445176.791667,29.6650,-93.4789,0076,0.69,-3.94,4.0000,170.0000
1982-07-26 07:30:00 UTC,2445176.812500,29.6650,-93.4789,0076,0.10,-3.00,3.0000,178.0000
1982-07-26 08:00:00 UTC,2445176.833333,29.6650,-93.4789,0076,0.17,-1.99,2.0000,175.0000
1982-07-26 08:30:00 UTC,2445176.854167,29.6650,-93.4789,0076,-0.38,-1.96,2.0000,191.0000